| time (UTC) | temp F | wind direction | speed MPH | gust MPH | rain 1hr in | rain 24hr in | rain mn in | humidity % | barometer mb |
| 20260902022809 | 59 | 0 | 0.0 | 0.0 | 0.00 | 0.00 | 0.00 | 80 | 979.9 |
| 20260902015807 | 60 | 0 | 0.0 | 0.0 | 0.00 | 0.00 | 0.00 | 79 | 979.7 |
| 20260902011430 | 60 | 0 | 0.0 | 0.0 | 0.00 | 0.00 | 0.00 | 78 | 979.8 |
| 20260902004436 | 60 | 0 | 0.0 | 0.0 | 0.00 | 0.00 | 0.00 | 78 | 979.7 |
| 20260902001430 | 61 | 0 | 0.0 | 0.0 | 0.00 | 0.00 | 0.00 | 77 | 979.7 |
| 20260901234431 | 61 | 0 | 0.0 | 0.0 | 0.00 | 0.00 | 0.00 | 75 | 979.8 |
| 20260901231431 | 62 | 0 | 0.0 | 0.0 | 0.00 | 0.00 | 0.00 | 73 | 979.9 |
| 20260901224430 | 62 | 0 | 0.0 | 0.0 | 0.00 | 0.00 | 0.00 | 73 | 979.8 |
| 20260901221431 | 63 | 0 | 0.0 | 0.0 | 0.00 | 0.00 | 0.00 | 72 | 979.8 |
| 20260901214430 | 63 | 0 | 0.0 | 0.0 | 0.00 | 0.00 | 0.00 | 71 | 979.9 |
| 20260901211432 | 64 | 0 | 0.0 | 0.0 | 0.00 | 0.00 | 0.00 | 70 | 979.7 |
| 20260901204432 | 65 | 0 | 0.0 | 0.0 | 0.00 | 0.00 | 0.00 | 69 | 979.9 |
| 20260901201431 | 66 | 0 | 0.0 | 0.0 | 0.00 | 0.00 | 0.00 | 65 | 979.8 |
| 20260901194430 | 67 | 0 | 0.0 | 0.0 | 0.00 | 0.00 | 0.00 | 63 | 979.5 |
| 20260901191432 | 69 | 0 | 0.0 | 0.0 | 0.00 | 0.00 | 0.00 | 61 | 979.2 |
| 20260901191204 | 71 | 0 | 0.0 | 0.0 | 0.00 | 0.00 | 0.00 | 59 | 979.1 |
| 20260901181432 | 73 | 0 | 0.0 | 0.0 | 0.00 | 0.00 | 0.00 | 53 | 978.9 |
| 20260901174430 | 75 | 0 | 0.0 | 0.0 | 0.00 | 0.00 | 0.00 | 52 | 978.8 |
| 20260901171430 | 77 | 0 | 0.0 | 0.0 | 0.00 | 0.00 | 0.00 | 50 | 978.8 |
| 20260901164431 | 78 | 55 | 0.0 | 0.0 | 0.00 | 0.00 | 0.00 | 47 | 978.9 |
| 20260901161430 | 79 | 0 | 0.0 | 5.0 | 0.00 | 0.00 | 0.00 | 45 | 979.0 |
| 20260901154430 | 80 | 0 | 0.0 | 4.0 | 0.00 | 0.00 | 0.00 | 44 | 979.2 |
| 20260901151430 | 80 | 0 | 0.0 | 4.0 | 0.00 | 0.00 | 0.00 | 43 | 979.3 |
| 20260901144432 | 81 | 0 | 0.0 | 5.0 | 0.00 | 0.00 | 0.00 | 45 | 979.3 |
| 20260901141430 | 81 | 44 | 0.0 | 0.0 | 0.00 | 0.00 | 0.00 | 45 | 979.6 |
| 20260901134430 | 82 | 305 | 0.0 | 4.0 | 0.00 | 0.00 | 0.00 | 45 | 979.8 |
| 20260901131431 | 82 | 48 | 0.0 | 5.0 | 0.00 | 0.00 | 0.00 | 44 | 980.0 |
| 20260901124429 | 83 | 13 | 0.0 | 0.0 | 0.00 | 0.00 | 0.00 | 47 | 980.3 |
| 20260901122813 | 83 | 355 | 0.0 | 8.0 | 0.00 | 0.00 | 0.00 | 45 | 980.4 |
| 20260901114423 | 83 | 0 | 0.0 | 5.0 | 0.00 | 0.00 | 0.00 | 46 | 980.5 |
| 20260901111423 | 81 | 331 | 0.0 | 4.0 | 0.00 | 0.00 | 0.00 | 48 | 980.7 |
| 20260901104436 | 81 | 0 | 0.0 | 8.0 | 0.00 | 0.00 | 0.00 | 50 | 981.0 |
| 20260901101421 | 79 | 0 | 0.0 | 5.0 | 0.00 | 0.00 | 0.00 | 53 | 981.1 |
| 20260901094419 | 78 | 26 | 0.0 | 5.0 | 0.00 | 0.00 | 0.00 | 55 | 981.4 |
| 20260901091419 | 77 | 0 | 0.0 | 1.0 | 0.00 | 0.00 | 0.00 | 60 | 981.5 |
| 20260901084418 | 74 | 0 | 0.0 | 0.0 | 0.00 | 0.00 | 0.00 | 63 | 981.5 |
| 20260901081418 | 72 | 0 | 0.0 | 0.0 | 0.00 | 0.00 | 0.00 | 66 | 981.5 |
| 20260901074419 | 68 | 322 | 0.0 | 0.0 | 0.00 | 0.00 | 0.00 | 73 | 981.3 |
| 20260901071421 | 63 | 0 | 0.0 | 0.0 | 0.00 | 0.00 | 0.00 | 81 | 981.2 |
| 20260901064417 | 60 | 5 | 0.0 | 0.0 | 0.00 | 0.00 | 0.00 | 83 | 981.1 |
| 20260901061414 | 58 | 5 | 0.0 | 0.0 | 0.00 | 0.00 | 0.00 | 87 | 981.1 |
| 20260901061134 | 56 | 5 | 0.0 | 0.0 | 0.00 | 0.00 | 0.00 | 86 | 981.0 |
| 20260901051412 | 56 | 5 | 0.0 | 0.0 | 0.00 | 0.00 | 0.00 | 85 | 980.7 |
| 20260901044411 | 56 | 5 | 0.0 | 0.0 | 0.00 | 0.00 | 0.00 | 84 | 980.6 |
| 20260901041410 | 57 | 5 | 0.0 | 0.0 | 0.00 | 0.00 | 0.00 | 82 | 980.6 |
| 20260901034409 | 57 | 5 | 0.0 | 0.0 | 0.00 | 0.01 | 0.00 | 81 | 980.5 |
| 20260901031409 | 58 | 5 | 0.0 | 0.0 | 0.00 | 0.01 | 0.00 | 80 | 980.6 |
| 20260901024409 | 59 | 5 | 0.0 | 0.0 | 0.00 | 0.01 | 0.00 | 80 | 980.8 |